Home > Weather > Jacksonville > Past weeks

Flag for U.S.A. Weather for the Past 2 Weeks in Jacksonville, Florida, U.S.A.

Now
41 °F

Clear.


Feels Like: 37 °F
Forecast: 35 / 50 °F
Wind: 6 mph from West

Location: Jacksonville Naval Air Station

Current Time: Feb 10, 2016 at 3:03:26 AM

Latest Report: Feb 10, 2016 at 1:53 AM


Visibility: 10 mi

Pressure: 30.08 "Hg

Humidity: 47%

Dew point: 22 °F

Location of JacksonvilleLocation

Historic Weather in Jacksonville — Graph

°F

Jacksonville Temperature Yesterday

Maximum temperature yesterday: 58 °F (at 2:53 PM)
Minimum temperature yesterday: 44 °F (at 6:53 AM)
Average temperature yesterday: 51 °F

High & Low Weather Summary for the Past Weeks

 TemperatureHumidityPressure
High83 °F (Feb 3, 1:53 PM)94% (Feb 2, 8:04 AM)30.33 "Hg (Feb 2, 8:04 AM)
Low39 °F (Feb 8, 5:53 AM)21% (Feb 9, 12:53 PM)29.75 "Hg (Jan 28, 3:53 PM)
Average58 °F68%30.05 "Hg
* Reported Jan 26 1:53 AM — Feb 10 1:53 AM, Jacksonville, Weather by CustomWeather, © 2016

Note: Actual official high and low records may vary slightly from our data, if they occured in-between our weather recording intervals... More about our weather records

Advertising

Jacksonville Weather History for the Previous 24 Hours

 ConditionsComfort  
Time TempWeatherWind HumidityBarometerVisibility
1:53 AM
Wed, Feb 10
41 °FClear.6 mph47%30.08 "Hg10 mi
12:53 AM43 °FClear.6 mph40%30.08 "Hg10 mi
11:53 PM
Tue, Feb 9
45 °FClear.6 mph37%30.07 "Hg10 mi
10:53 PM47 °FClear.9 mph33%30.05 "Hg10 mi
9:53 PM49 °FClear.10 mph41%30.02 "Hg10 mi
8:53 PM50 °FClear.14 mph46%29.99 "Hg10 mi
7:53 PM51 °FClear.13 mph42%29.96 "Hg10 mi
6:53 PM53 °FPassing clouds.14 mph38%29.91 "Hg10 mi
5:53 PM55 °FPassing clouds.21 mph35%29.88 "Hg10 mi
4:53 PM56 °FPassing clouds.18 mph30%29.86 "Hg10 mi
3:53 PM57 °FPassing clouds.25 mph27%29.85 "Hg10 mi
2:53 PM58 °FPassing clouds.25 mph25%29.85 "Hg10 mi
1:53 PM57 °FPassing clouds.26 mph21%29.87 "Hg10 mi
12:53 PM54 °FPassing clouds.21 mph21%29.91 "Hg10 mi
11:53 AM52 °FPassing clouds.24 mph24%29.95 "Hg10 mi
10:53 AM50 °FPassing clouds.25 mph27%29.98 "Hg7 mi
9:53 AM48 °FSunny.15 mph34%29.98 "Hg10 mi
8:53 AM46 °FSunny.13 mph35%29.98 "Hg10 mi
7:53 AM44 °FPassing clouds.9 mph38%29.99 "Hg10 mi
6:53 AM44 °FPassing clouds.17 mph37%29.99 "Hg10 mi
5:53 AM46 °FPassing clouds.14 mph40%29.94 "Hg10 mi
4:53 AM47 °FPassing clouds.13 mph41%29.92 "Hg10 mi
3:53 AM49 °FPassing clouds.10 mph39%29.90 "Hg10 mi
Weather by CustomWeather, © 2016

See weather overviewHow to use our weather pages